Back to catalog

STARLINK-11274

AliveCommunicationsVLEO
NORAD 61001·PAYLOAD·🇺🇸 United States

Launched Sep 5, 2024 from Cape Canaveral Space Force Station

Loading…

Next Passes (next 24 hours)

TLE

FreshSource: CelesTrak SupGP

Epoch: Sep 14, 2026, 21:18 UTC

1 61001C 24158M   26257.88798611  .00055945  00000+0  46084-3 0  2577
2 61001  53.1572  68.4858 0001159  78.1283 213.0223 15.69681479    17

Track STARLINK-11274 in real time with AllMySat

Download on the App Store